Regional Weather Roundup
Issued by NWS Cleveland, OH

Home | Current Version | Previous Version | Graphics & Text | Print | Product List | Glossary On
Versions: 1 2 3 4 5 6 7 8 9 10 11 12 13 14 15 16 17 18 19 20 21 22 23 24 25 26 27 28 29 30 31 32 33 34 35 36 37 38 39 40 41 42 43 44 45 46 47 48 49 50
000
ASUS41 KCLE 240610
RWRCLE
OHIO REGIONAL WEATHER ROUNDUP
NATIONAL WEATHER SERVICE WILMINGTON, OH
200 AM EDT THU AUG 24 2017

NOTE: "FAIR" INDICATES FEW OR NO CLOUDS BELOW 12,000 FEET WITH NO
SIGNIFICANT WEATHER AND/OR OBSTRUCTIONS TO VISIBILITY.

OHZ001>008-015>018-024>027-034-035-043-044-240700-
   NORTHWEST OHIO

CITY           SKY/WX    TMP DP  RH WIND       PRES   REMARKS
DEFIANCE       MOCLDY    57  50  77 NW5       30.03S
FINDLAY        FAIR      57  50  77 W6        30.00S
TOLEDO EXPRESS FAIR      57  53  86 NW5       30.01R
TOLEDO EXEC    FAIR      62  53  72 N8        30.01R
LIMA           FAIR      57  51  80 NW7       30.03R
$$

OHZ009>014-019>023-028>033-038-089-240700-
   NORTHEAST OHIO

CITY           SKY/WX    TMP DP  RH WIND       PRES   REMARKS
CLE-HOPKINS    FAIR      60  56  86 S3        29.99S
CLE-LAKEFRONT  CLOUDY    68  56  65 E5        29.96S
CUY CO. ARPT   NOT AVBL
LORAIN-ELYRIA  FAIR      58  52  80 SW6       29.98S
ASHTABULA      MOCLDY    56  55  97 E3        29.99S
AKRON-CANTON   FAIR      61  54  77 CALM      29.99R
WOOSTER        FAIR      53  52  96 CALM      30.00R
MANSFIELD      FAIR      58  52  80 W6        30.00S
YOUNGSTOWN     MOCLDY    56  54  93 CALM      29.99R
$$

OHZ042-051>053-060>062-070>072-077>081-240700-
  SOUTHWEST OHIO

CITY           SKY/WX    TMP DP  RH WIND       PRES   REMARKS
CINC-COVINGTON FAIR      63  55  75 N3        30.03R
CINC-LUNKEN    FAIR      58  58 100 CALM      30.03S
HAMILTON       FAIR      56  55  97 CALM      30.04R
DAYTON         FAIR      59  51  75 NW5       30.04S
WRIGHT-PAT AFB FAIR      61  53  74 CALM      30.03S
DAYTON GENERAL FAIR      62  52  69 N7        30.03R
WILMINGTON     FAIR      62  54  74 N9        30.03R
$$

OHZ036-037-039>041-045>050-054>059-063>069-073>076-082>088-240700-
  CENTRAL AND SOUTHEAST OHIO

CITY           SKY/WX    TMP DP  RH WIND       PRES   REMARKS
COLUMBUS       FAIR      62  57  83 CALM      30.01R
OSU AIRPORT    FAIR      58  54  86 W6        30.01S
BOLTON FIELD   FAIR      59  55  85 NW5       30.02S
RICKENBACK AFB FAIR      61  55  82 NW5       30.01S
NEWARK         FAIR      58  56  93 CALM      30.00S
MARION         FAIR      58  51  78 NW6       30.01S
LANCASTER      FAIR      56  55  97 CALM      30.01S
ZANESVILLE     MOCLDY    59  57  93 CALM      30.00S
NEW PHILLY     FAIR      57  56  96 CALM      30.00R
$$




USA.gov is the U.S. government's official web portal to all federal, state and local government web resources and services.